Location: Poughquag
(41.6090°N, 73.6820°W)
Time: 16:09:33
(UTC-04:00)

X-37B - Pass Details

Date: 18 June 2023
Orbit: 277 x 277 km, 45.0° (Epoch: 01 November)

Event Time Altitude Azimuth Distance (km) Brightness Sun altitude
Exits shadow 04:17:20 - 290° (WNW) 1,765 3.7 -10.0°
Reaches altitude 10° 04:18:54 10° 294° (WNW) 1,102 2.7 -9.8°
Maximum altitude 04:21:20 61° 16° (NNE) 319 0.4 -9.5°
Drops below altitude 10° 04:23:46 10° 99° (E) 1,098 3.4 -9.1°
Sets 04:25:41 0° 103° (ESE) 1,909 4.6 -8.9°
